Simultaneous Nadir Overpasses (SNOs) Predictions

Prediction of SNOs between AQUA and GOES-15 Satellite Orbit:

Table of predicted SNOs for the next 14.0 days since TLE Epoch: 8/31/2024
Index Date Time (AQUA) AQUA Lat,Lon GOES-15 Lat,Lon Distance(km) Time Diff (sec)
1 08/31/2024 10:19:05 -0.84, 59.38 -0.38, 61.50 241.23 80
2 09/02/2024 10:01:46 0.08, 63.61 -0.38, 61.48 243.11 80
3 09/02/2024 22:21:41 0.98, 58.80 0.37, 61.51 308.62 80
4 09/04/2024 22:04:19 0.03, 63.04 0.37, 61.49 176.70 80
5 09/05/2024 10:24:22 -1.08, 58.19 -0.36, 61.45 371.50 80
6 09/07/2024 10:06:57 -0.12, 62.44 -0.36, 61.44 115.36 80
7 09/07/2024 22:26:49 1.20, 57.64 0.35, 61.45 434.58 80
8 09/09/2024 22:09:20 0.28, 61.91 0.36, 61.45 52.31 80
9 09/10/2024 10:29:22 -1.29, 57.06 -0.34, 61.43 497.10 80
10 09/12/2024 10:11:50 -0.35, 61.35 -0.34, 61.43 9.26 80
